Location: D?uga
(50.2667°N, 19.7833°E)
Time: 01:23:50
(UTC+00:00)

IDEFIX/ARIANE 42P - Pass Details

Date: 23 May 2024
Orbit: 783 x 799 km, 98.5° (Epoch: 18 June)

Event Time Altitude Azimuth Distance (km) Brightness Sun altitude
Rises 01:16:35 0° 10° (N) 3,318 7.0 -10.9°
Reaches altitude 10° 01:18:59 10° 5° (N) 2,384 6.0 -10.7°
Maximum altitude 01:24:01 47° 293° (WNW) 1,054 3.1 -10.1°
Enters shadow 01:28:34 12° 223° (SW) 2,203 4.2 -9.7°
